DateTimeUTC,F1_A11,F1_S11,BsB_S11,BsG_S11,BsR_S11,BbsB_S11,BbsG_S11,BbsR_S11,BaB_A11,BaG_A11,BaR_A11,Tu_S11,T_S11,Uu_S11,U_S11,P_S11,T1_A11
2021-08-27T10:00:00Z,00000200,20000000,,,,,,,0000.14,0000.02,-000.08,18.8,25.5,06.2,04.1,0670.1,30.8
2021-08-27T10:01:00Z,00000200,20000000,,,,,,,-000.17,0000.25,0000.14,18.8,25.5,06.2,04.1,0670.1,30.9
2021-08-27T10:02:00Z,00000200,20000000,,,,,,,0000.15,0000.23,0000.09,18.8,25.5,06.2,04.1,0670.1,30.9
2021-08-27T10:03:00Z,00000200,60000000,,,,,,,0001.06,0001.23,0000.70,18.8,25.5,06.2,04.1,0670.1,30.9
2021-08-27T10:04:00Z,00000200,40000000,0004.00,0002.57,0002.26,-000.03,0000.35,0000.20,0000.86,0000.87,0001.01,19.1,25.4,06.4,04.4,0671.1,30.9
2021-08-27T10:05:00Z,00000200,00000000,0003.83,0003.39,0002.02,0001.21,0000.26,0000.25,0001.34,0001.10,0000.70,19.2,25.4,06.6,04.5,0671.1,30.9
2021-08-27T10:06:00Z,00000200,00000000,0002.65,0003.54,0002.09,0000.58,0000.40,0000.46,0000.86,0000.61,0000.97,19.2,25.4,06.7,04.6,0671.0,30.9
2021-08-27T10:07:00Z,00000200,00000000,0004.32,0003.65,0002.35,0000.53,0000.31,0000.62,0001.08,0000.84,0000.76,19.2,25.4,06.6,04.5,0671.1,30.9
2021-08-27T10:08:00Z,00000200,00000000,0003.41,0003.53,0002.07,0000.53,0000.49,0000.52,0000.54,0000.78,0000.43,19.2,25.4,06.6,04.5,0671.1,30.9
2021-08-27T10:09:00Z,00000200,00000000,0004.15,0003.07,0002.18,0000.79,0000.46,0000.18,0000.73,0000.58,0000.73,19.1,25.3,06.6,04.6,0671.0,30.9
2021-08-27T10:10:00Z,00000200,00000000,0003.87,0003.27,0001.94,0000.89,0000.35,0000.33,0000.56,0000.72,0000.22,19.1,25.3,06.7,04.6,0671.1,30.9
2021-08-27T10:11:00Z,00000200,00000000,0004.66,0003.50,0002.32,0000.74,0000.59,0000.65,0001.00,0000.98,0001.00,19.1,25.3,06.6,04.6,0671.1,30.8
2021-08-27T10:12:00Z,00000200,00000000,0003.25,0003.56,0002.29,0000.51,0000.25,0000.34,0000.91,0000.47,0000.01,19.0,25.3,06.5,04.5,0671.1,30.8
2021-08-27T10:13:00Z,00000200,00000000,0003.29,0003.36,0002.09,0000.46,0000.48,0000.47,0000.55,0000.49,0001.06,19.0,25.3,06.6,04.5,0671.1,30.8
2021-08-27T10:14:00Z,00000200,00000000,0003.73,0003.33,0002.53,0000.70,0000.52,0000.56,0000.56,0000.48,-000.12,19.0,25.2,06.5,04.4,0671.2,30.8
2021-08-27T10:15:00Z,00000200,00000000,0003.53,0003.12,0002.29,0000.47,0000.19,0000.31,0000.30,-000.04,0000.72,19.0,25.2,06.5,04.4,0671.1,30.8
2021-08-27T10:16:00Z,00000200,00000000,0004.33,0003.67,0002.31,0000.31,0000.41,0000.72,0000.56,0000.83,0000.40,19.0,25.2,06.4,04.4,0671.1,30.9
2021-08-27T10:17:00Z,00000200,00000000,0003.75,0003.49,0002.28,0001.01,0000.29,0000.70,0000.76,0000.87,0000.62,19.1,25.3,06.3,04.4,0671.1,30.9
2021-08-27T10:18:00Z,00000200,00000000,0004.28,0003.43,0002.13,0000.29,0000.76,0000.64,0000.58,0000.66,0000.38,19.2,25.3,06.3,04.3,0671.1,30.9
2021-08-27T10:19:00Z,00000200,00000000,0004.13,0003.13,0002.47,0000.11,0000.27,0000.39,0000.37,0000.34,0000.01,19.2,25.4,06.1,04.2,0671.0,30.9
2021-08-27T10:20:00Z,00000200,00000000,0003.88,0003.62,0002.31,0000.51,0000.37,0000.35,0000.75,0000.41,0000.49,19.3,25.4,06.0,04.1,0671.0,30.9
2021-08-27T10:21:00Z,00000200,00000000,0003.74,0003.14,0002.21,0001.00,0000.32,0000.16,0000.60,0000.64,0000.65,19.2,25.4,05.9,04.1,0671.1,30.9
2021-08-27T10:22:00Z,00000200,00000000,0004.58,0003.15,0002.19,0000.22,0000.52,0000.50,0000.93,0000.94,0000.73,19.2,25.3,05.9,04.0,0671.1,30.9
2021-08-27T10:23:00Z,00000200,00000000,0004.34,0003.31,0002.29,0000.42,0000.15,0000.63,0000.73,0000.57,0000.75,19.2,25.3,05.9,04.1,0671.1,30.9
2021-08-27T10:24:00Z,00000200,00000000,0003.39,0002.90,0002.35,0000.02,0000.24,0000.42,0000.75,0000.70,0000.41,19.1,25.3,05.8,04.0,0671.1,30.9
2021-08-27T10:25:00Z,00000200,00000000,0003.97,0003.65,0002.04,0000.81,0000.68,0000.15,0000.33,0000.30,0000.41,19.1,25.3,05.8,04.0,0671.1,30.9
2021-08-27T10:26:00Z,00000200,00000000,0003.61,0002.92,0002.27,-000.15,0000.49,0000.04,0000.62,0000.30,0000.11,19.1,25.3,05.7,03.9,0671.1,30.8
2021-08-27T10:27:00Z,00000200,00000000,0004.04,0003.20,0002.19,0000.48,0000.57,0000.64,0000.63,0000.99,0000.83,19.0,25.2,05.7,03.9,0671.1,30.8
2021-08-27T10:28:00Z,00000200,00000000,0003.60,0003.19,0002.27,0001.21,0000.17,0000.40,0000.34,0000.57,0000.23,19.0,25.2,05.7,03.9,0671.0,30.8
2021-08-27T10:29:00Z,00000200,00000000,0003.57,0003.07,0002.22,0000.11,0000.14,0000.41,0000.74,0000.93,0000.86,19.0,25.2,05.7,03.9,0671.0,30.8
2021-08-27T10:30:00Z,00000200,00000000,0003.72,0002.77,0002.46,0000.58,0000.30,0000.28,0000.39,0000.06,0000.09,19.0,25.2,05.6,03.8,0671.1,30.8
2021-08-27T10:31:00Z,00000200,00000000,0003.69,0002.86,0002.63,0000.37,0000.47,0000.33,0000.62,0000.04,0000.70,19.0,25.2,05.5,03.8,0671.0,30.9
2021-08-27T10:32:00Z,00000200,00000000,0003.87,0002.93,0002.11,0000.47,0000.27,0000.49,0000.58,0000.83,0000.47,19.1,25.3,05.5,03.8,0671.1,30.9
2021-08-27T10:33:00Z,00000200,00000000,0003.32,0003.28,0001.95,0000.67,0000.57,0000.36,0000.36,0000.63,0000.01,19.2,25.3,05.4,03.7,0671.1,30.9
2021-08-27T10:34:00Z,00000200,00000000,0003.92,0003.54,0002.24,0001.06,0000.37,0000.63,0000.97,0000.39,0000.68,19.2,25.3,05.4,03.7,0671.2,30.9
2021-08-27T10:35:00Z,00000200,00000000,0003.54,0003.25,0002.10,0000.13,0000.41,0000.16,0000.38,0000.46,0000.77,19.2,25.3,05.3,03.7,0671.0,30.9
2021-08-27T10:36:00Z,00000200,00000000,0003.95,0003.18,0002.02,0000.33,0000.48,0000.21,0000.59,0000.76,-000.03,19.2,25.3,05.4,03.7,0671.1,30.9
2021-08-27T10:37:00Z,00000200,00000000,0004.12,0002.95,0002.14,0000.01,0000.41,0000.01,0000.81,0000.87,0000.96,19.1,25.3,05.2,03.6,0671.0,30.9
2021-08-27T10:38:00Z,00000200,00000000,0003.79,0003.22,0002.17,0000.23,0000.12,0000.39,0000.55,0000.65,0000.59,19.1,25.3,05.2,03.6,0670.9,30.9
2021-08-27T10:39:00Z,00000200,00000000,0003.92,0003.22,0002.29,0000.91,0000.33,0000.49,0001.08,0000.91,0000.43,19.1,25.3,05.2,03.6,0671.0,30.8
2021-08-27T10:40:00Z,00000200,00000000,0004.95,0003.11,0002.01,0000.84,0000.32,0000.43,0000.29,0000.36,0000.45,19.0,25.2,05.2,03.6,0670.9,30.8
2021-08-27T10:41:00Z,00000200,00000000,0003.65,0003.45,0002.28,0000.77,0000.37,0000.50,0001.10,0000.78,0000.68,19.0,25.2,05.3,03.6,0671.0,30.8
2021-08-27T10:42:00Z,00000200,00000000,0003.84,0003.33,0002.48,0000.81,0000.43,0000.57,0000.60,0000.72,0000.68,19.0,25.2,05.3,03.7,0671.0,30.8
2021-08-27T10:43:00Z,00000200,00000000,0003.04,0003.26,0002.30,0001.04,0000.54,0000.45,0001.02,0000.78,0000.65,19.0,25.2,05.4,03.7,0670.9,30.8
2021-08-27T10:44:00Z,00000200,00000000,0003.86,0003.03,0001.87,0000.45,0000.43,0000.38,0000.66,0000.94,0000.60,18.9,25.2,05.3,03.7,0670.9,30.8
2021-08-27T10:45:00Z,00000200,00000000,0003.49,0003.71,0002.12,0000.69,0000.23,0000.24,0000.68,0000.37,0000.25,18.9,25.2,05.4,03.7,0670.9,30.8
2021-08-27T10:46:00Z,00000200,00000000,0004.10,0003.14,0002.35,0000.49,0000.74,0000.22,0000.65,0000.58,0000.85,19.0,25.2,05.4,03.7,0670.9,30.9
2021-08-27T10:47:00Z,00000200,00000000,0004.07,0003.43,0002.17,0001.60,0000.52,0000.43,0000.85,0000.87,0000.66,19.0,25.2,05.4,03.7,0670.9,30.9
2021-08-27T10:48:00Z,00000200,00000000,0002.90,0003.25,0002.23,0000.81,0000.42,0000.32,0001.03,0000.74,0000.45,19.2,25.3,05.5,03.8,0671.0,30.9
2021-08-27T10:49:00Z,00000200,00000000,0004.37,0003.20,0002.63,0000.59,0000.32,0000.55,0001.05,0001.11,0000.90,19.3,25.3,05.5,03.8,0670.9,30.9
2021-08-27T10:50:00Z,00000200,00000000,0004.20,0003.25,0001.98,0000.49,0000.28,0000.48,0000.43,0000.43,0000.34,19.4,25.4,05.4,03.8,0670.9,30.9
2021-08-27T10:51:00Z,00000200,00000000,0002.87,0003.21,0002.48,0000.62,0000.43,0000.05,0000.88,0001.31,0000.91,19.4,25.4,05.5,03.8,0671.0,30.9
2021-08-27T10:52:00Z,00000200,00000000,0004.14,0003.46,0002.64,0000.56,0000.35,0000.53,0000.67,0000.06,0000.61,19.4,25.4,05.5,03.8,0671.0,30.9
2021-08-27T10:53:00Z,00000200,00000000,0004.19,0003.38,0002.16,0000.93,0000.33,0000.53,0001.06,0001.36,0000.66,19.3,25.4,05.5,03.8,0671.0,30.9
2021-08-27T10:54:00Z,00000200,00000000,0004.43,0002.96,0002.12,0000.63,0000.16,0000.34,0000.52,0000.43,0000.51,19.3,25.4,05.5,03.8,0670.9,30.9
2021-08-27T10:55:00Z,00000200,00000000,0003.86,0003.42,0002.52,0001.29,0000.23,0000.37,0001.19,0000.89,0000.87,19.2,25.3,05.6,03.8,0671.0,30.9
2021-08-27T10:56:00Z,00000200,00000000,0003.17,0003.28,0002.15,0000.39,0000.50,0000.20,0000.94,0000.92,0000.34,19.2,25.4,05.6,03.8,0670.9,30.9
2021-08-27T10:57:00Z,00000200,40000000,,,,,,,0000.26,0000.46,0000.35,19.2,25.4,05.7,03.9,0671.0,30.8
2021-08-27T10:58:00Z,00000200,60000000,,,,,,,-000.03,-000.27,0000.25,18.9,25.4,05.8,03.9,0669.9,30.8
2021-08-27T10:59:00Z,00000200,20000000,,,,,,,0000.15,0000.08,0000.13,18.9,25.5,05.8,03.9,0669.9,30.8
